Weather History for Baker, MT

Change the Weather History Date:

Thursday, November 15, 2012

  Actual Average Record
Temperature  
Mean Temperature 32 °F -  
Max Temperature 45 °F 26 °F 70 °F (1999)
Min Temperature 18 °F 10 °F 8 °F (2005)
Degree Days  
Heating Degree Days 34    
Moisture  
Dew Point 23 °F    
Average Humidity 74    
Maximum Humidity 88    
Minimum Humidity 53    
Precipitation  
Precipitation 0.00 in - - ()
Sea Level Pressure  
Sea Level Pressure 30.33 in    
Wind  
Wind Speed 7 mph (South)    
Max Wind Speed 18 mph    
Max Gust Speed -    
Visibility 10 miles    
Events      
Averages and records for this station are not official NWS values.
T = Trace of Precipitation, MM = Missing Value Source: NWS Daily Summary

Daily Weather History Graph

Daily Weather History Graph

Search for Another Location

Airport:

Trip Planner

Search our weather history database for the weather conditions in past years. The results will help you decide how hot, cold, wet, or windy it might be!

Date:

Astronomy

Nov. 15, 2012 Rise Set
Actual Time 6:59 AM MST 4:23 PM MST
Civil Twilight 6:26 AM MST 4:56 PM MST
Nautical Twilight 5:49 AM MST 5:32 PM MST
Astronomical Twilight 5:14 AM MST 6:08 PM MST
Moon 9:01 AM MST (11/15) 6:13 PM MST (11/15)
Length of Visible Light 10h 29m
Length of Day
9h 24m
Waxing Crescent, 5% of the Moon is Illuminated
Nov 15
Waxing Crescent
Nov 20
First Quarter
Nov 28
Full
Dec 6
Last Quarter
Dec 13
New

Hourly Weather History & Observations

Time (MST) Temp. Windchill Dew Point Humidity Pressure Visibility Wind Dir Wind Speed Gust Speed Precip Events Conditions
12:51 AM 26.1 °F 16.8 °F 21.9 °F 84% 30.29 in 10.0 mi West 9.2 mph - N/A   Clear
1:51 AM 25.0 °F 20.7 °F 19.9 °F 81% 30.32 in 10.0 mi NW 3.5 mph - N/A   Clear
2:51 AM 23.0 °F 15.8 °F 19.0 °F 85% 30.34 in 10.0 mi West 5.8 mph - N/A   Clear
3:51 AM 23.0 °F - 19.0 °F 85% 30.36 in 10.0 mi Calm Calm - N/A   Clear
4:51 AM 21.9 °F - 18.0 °F 85% 30.39 in 10.0 mi Calm Calm - N/A   Clear
5:51 AM 18.0 °F - 14.0 °F 84% 30.41 in 10.0 mi Calm Calm - N/A   Clear
6:51 AM 19.0 °F - 14.0 °F 81% 30.43 in 10.0 mi Calm Calm - N/A   Clear
7:51 AM 19.0 °F - 16.0 °F 88% 30.43 in 10.0 mi Calm Calm - N/A   Clear
9:51 AM 35.1 °F 32.2 °F 28.0 °F 76% 30.40 in 10.0 mi ESE 3.5 mph - N/A   Clear
10:51 AM 39.9 °F 35.8 °F 27.0 °F 60% 30.40 in 10.0 mi South 5.8 mph - N/A   Clear
11:51 AM 43.0 °F 38.2 °F 27.0 °F 53% 30.37 in 10.0 mi South 8.1 mph - N/A   Clear
1:51 PM 45.0 °F 40.1 °F 28.9 °F 53% 30.32 in 10.0 mi South 9.2 mph - N/A   Clear
2:51 PM 45.0 °F 40.6 °F 30.0 °F 56% 30.32 in 10.0 mi South 8.1 mph - N/A   Clear
3:51 PM 39.9 °F 33.9 °F 28.9 °F 65% 30.32 in 10.0 mi South 9.2 mph - N/A   Clear
4:51 PM 36.0 °F 29.6 °F 27.0 °F 70% 30.31 in 10.0 mi South 8.1 mph - N/A   Clear
7:51 PM 34.0 °F 23.4 °F 24.1 °F 67% 30.30 in 10.0 mi SSE 17.3 mph - N/A   Clear
8:51 PM 33.1 °F 22.2 °F 24.1 °F 70% 30.27 in 10.0 mi SSE 17.3 mph - N/A   Clear
9:51 PM 32.0 °F 20.5 °F 24.1 °F 73% 30.23 in 10.0 mi SSE 18.4 mph - N/A   Clear
10:51 PM 30.9 °F 20.7 °F 24.1 °F 76% 30.20 in 10.0 mi SE 13.8 mph - N/A   Clear
11:51 PM 30.0 °F 18.7 °F 24.1 °F 79% 30.18 in 10.0 mi SSE 16.1 mph - N/A   Clear